EW4120 Weather Reports


Display with metric or nautical units.
time (UTC)temp
F
wind
direction
speed
MPH
gust
MPH
rain 1hr
in
rain 24hr
in
rain mn
in
humidity
%
barometer
mb
20260901164516 90 45 1.0 5.0 0.00 0.02 0.01 61 1020.7
20260901163516 90 0.0 2.0 0.00 0.02 0.01 67 1020.8
20260901162516 90 45 1.0 4.0 0.00 0.03 0.01 65 1021.0
20260901161616 89 68 1.0 6.0 0.00 0.03 0.01 65 1021.1
20260901160516 89 0.0 3.0 0.00 0.04 0.01 67 1021.2
20260901155516 88 248 1.0 4.0 0.00 0.04 0.01 69 1021.3
20260901154556 88 0.0 2.0 0.00 0.04 0.01 71 1021.4
20260901153556 88 23 1.0 3.0 0.00 0.04 0.01 71 1021.5
20260901152656 87 0 1.0 4.0 0.01 0.04 0.01 71 1021.7
20260901151536 86 23 1.0 6.0 0.01 0.04 0.01 73 1021.8
20260901150516 86 0.0 3.0 0.01 0.04 0.01 75 1021.8
20260901145536 85 225 1.0 4.0 0.01 0.04 0.01 75 1021.8
20260901144516 85 0.0 3.0 0.01 0.04 0.01 77 1021.8
20260901143658 84 23 1.0 4.0 0.01 0.05 0.01 78 1021.8
20260901142516 83 0.0 1.0 0.00 0.04 0.00 80 1021.8
20260901141516 82 0.0 2.0 0.00 0.04 0.00 82 1021.7
20260901140515 82 0.0 0.0 0.00 0.04 0.00 88 1021.6
20260901135636 81 23 1.0 4.0 0.00 0.04 0.00 87 1021.6
20260901134616 80 0.0 1.0 0.00 0.04 0.00 89 1021.5
20260901133515 79 0.0 0.0 0.00 0.05 0.00 93 1021.5
20260901132515 78 0.0 2.0 0.00 0.05 0.00 93 1021.6
20260901131555 76 0.0 2.0 0.00 0.05 0.00 96 1021.5
20260901130515 75 0.0 1.0 0.00 0.05 0.00 100 1021.4
20260901125535 74 0.0 1.0 0.00 0.05 0.00 100 1021.3
20260901124535 73 0.0 1.0 0.00 0.05 0.00 100 1021.3
20260901123535 73 0.0 1.0 0.00 0.05 0.00 100 1021.3
20260901122556 72 0.0 0.0 0.00 0.05 0.00 100 1021.2
20260901121515 71 0.0 0.0 0.00 0.05 0.00 100 1021.1
20260901120515 70 0.0 0.0 0.00 0.05 0.00 100 1021.0
20260901115515 70 0.0 0.0 0.00 0.05 0.00 100 1021.1
20260901114515 69 0.0 0.0 0.00 0.05 0.00 99 1021.0
20260901113515 69 0.0 0.0 0.00 0.05 0.00 99 1020.9
20260901112535 69 0.0 0.0 0.00 0.05 0.00 99 1021.0
20260901111515 69 0.0 0.0 0.00 0.05 0.00 99 1020.8
20260901110515 69 0.0 0.0 0.00 0.05 0.00 99 1020.7
20260901105535 69 0.0 0.0 0.00 0.05 0.00 99 1020.6
20260901104555 69 0.0 0.0 0.00 0.05 0.00 99 1020.5
20260901103515 68 0.0 0.0 0.00 0.05 0.00 99 1020.5
20260901102515 68 0.0 0.0 0.00 0.05 0.00 99 1020.3
20260901101515 68 0.0 0.0 0.00 0.05 0.00 99 1020.3
20260901100535 69 0.0 0.0 0.00 0.05 0.00 99 1020.3
20260901095535 68 0.0 0.0 0.00 0.05 0.00 99 1020.3
20260901094535 68 0.0 0.0 0.00 0.06 0.00 99 1020.2
20260901093515 68 0.0 0.0 0.00 0.06 0.00 99 1020.2
20260901092517 69 0.0 0.0 0.00 0.06 0.00 99 1020.2
20260901091517 69 0.0 0.0 0.00 0.06 0.00 99 1020.0
20260901090617 69 0.0 0.0 0.00 0.06 0.00 99 1020.0
20260901085557 69 0.0 0.0 0.00 0.06 0.00 99 1020.1
20260901084617 69 0.0 0.0 0.00 0.06 0.00 99 1020.2
20260901083517 69 0.0 0.0 0.00 0.06 0.00 99 1020.4
20260901082517 69 0.0 0.0 0.00 0.06 0.00 99 1020.5
20260901081517 69 0.0 0.0 0.00 0.06 0.00 99 1020.4
20260901080517 70 0.0 0.0 0.00 0.06 0.00 99 1020.4
20260901075517 70 0.0 0.0 0.00 0.06 0.00 99 1020.6
20260901074517 70 0.0 0.0 0.00 0.06 0.00 99 1020.5
20260901073517 70 0.0 0.0 0.00 0.06 0.00 99 1020.5
20260901072517 70 0.0 0.0 0.00 0.06 0.00 99 1020.8
20260901071537 70 0.0 0.0 0.00 0.06 0.00 99 1020.8
20260901070517 70 0.0 0.0 0.00 0.06 0.00 99 1020.9
20260901065517 70 0.0 0.0 0.00 0.06 0.00 99 1020.9
20260901064517 70 0.0 0.0 0.00 0.06 0.00 98 1020.9
20260901063557 70 0.0 0.0 0.00 0.06 0.00 98 1021.0
20260901062537 70 0.0 0.0 0.00 0.06 0.00 98 1021.0
20260901061517 70 0.0 0.0 0.00 0.06 0.00 98 1021.0
20260901060517 70 0.0 0.0 0.00 0.06 0.00 98 1021.1
20260901055517 70 0.0 0.0 0.00 0.06 0.00 98 1021.1
20260901054517 70 0.0 0.0 0.00 0.06 0.00 98 1021.1
20260901053537 70 0.0 0.0 0.00 0.06 0.00 98 1021.2
20260901052537 70 0.0 0.0 0.00 0.06 0.00 98 1021.1
20260901051517 71 0.0 0.0 0.00 0.06 0.00 98 1021.2
20260901050637 71 0.0 0.0 0.00 0.06 0.00 98 1021.1
20260901045537 71 0.0 0.0 0.00 0.06 0.00 98 1021.1
20260901044537 71 0.0 0.0 0.00 0.06 0.00 98 1021.1
20260901043557 71 0.0 0.0 0.00 0.06 0.00 98 1021.1
20260901042557 71 0.0 0.0 0.00 0.06 0.00 98 1021.1
20260901041516 71 0.0 0.0 0.00 0.06 0.00 98 1021.1
20260901040557 71 0.0 0.0 0.01 0.06 0.00 98 1021.0
20260901035517 71 0.0 0.0 0.01 0.06 0.06 98 1021.0
20260901034517 71 0.0 0.0 0.01 0.06 0.06 98 1020.9
20260901033557 72 0.0 0.0 0.01 0.06 0.06 97 1021.0
20260901032537 72 0.0 0.0 0.01 0.06 0.06 97 1020.9
20260901031537 72 0.0 0.0 0.01 0.06 0.06 97 1020.9
20260901030517 72 0.0 0.0 0.00 0.05 0.05 98 1021.0
20260901025537 72 0.0 0.0 0.00 0.05 0.05 97 1020.9
20260901024537 72 0.0 0.0 0.00 0.05 0.05 97 1020.9
20260901023557 72 0.0 0.0 0.00 0.05 0.05 97 1020.8
20260901022517 72 0.0 0.0 0.00 0.05 0.05 97 1020.7
20260901021617 72 0.0 0.0 0.00 0.05 0.05 97 1020.8
20260901020517 72 0.0 0.0 0.00 0.05 0.05 97 1020.8
20260901015537 73 0.0 0.0 0.00 0.05 0.05 96 1020.6
20260901014537 73 0.0 0.0 0.00 0.05 0.05 96 1020.6
20260901013657 73 0.0 0.0 0.00 0.05 0.05 96 1020.5
20260901012537 73 0.0 0.0 0.00 0.05 0.05 96 1020.2
20260901011537 73 0.0 0.0 0.00 0.05 0.05 95 1020.2
20260901010517 74 0.0 0.0 0.00 0.05 0.05 95 1020.0
20260901005537 74 0.0 0.0 0.00 0.05 0.05 95 1019.8
20260901004517 74 0.0 0.0 0.00 0.05 0.05 94 1019.8
20260901003517 74 0.0 0.0 0.00 0.05 0.05 93 1019.7
20260901002517 75 0.0 0.0 0.00 0.05 0.05 93 1019.6
20260901001517 76 0.0 0.0 0.00 0.05 0.05 92 1019.6
20260901000537 76 0.0 0.0 0.00 0.05 0.05 90 1019.5
20260831235517 77 0.0 0.0 0.00 0.05 0.05 89 1019.4
20260831234617 78 0.0 0.0 0.00 0.05 0.05 89 1019.5
20260831233537 80 0.0 0.0 0.00 0.05 0.05 86 1019.4
20260831232517 82 0.0 0.0 0.00 0.05 0.05 84 1019.6
20260831231537 83 0.0 0.0 0.00 0.05 0.05 81 1019.6
20260831230557 86 0.0 0.0 0.00 0.05 0.05 78 1019.7
20260831225557 87 0.0 0.0 0.00 0.05 0.05 77 1019.8
20260831224537 88 0.0 0.0 0.00 0.05 0.05 74 1019.9
20260831223556 88 0.0 0.0 0.00 0.05 0.05 72 1020.0
20260831222537 89 0.0 1.0 0.00 0.05 0.05 73 1020.2
20260831221516 88 0.0 2.0 0.00 0.05 0.05 69 1020.2
20260831220617 87 0.0 1.0 0.00 0.05 0.05 72 1020.3
20260831215516 86 315 1.0 3.0 0.00 0.05 0.05 71 1020.3
20260831214536 86 0.0 2.0 0.00 0.05 0.05 74 1020.3
20260831213556 85 0.0 2.0 0.00 0.05 0.05 74 1020.2
20260831212536 84 0.0 4.0 0.00 0.05 0.05 77 1020.3
20260831211617 83 0.0 2.0 0.00 0.05 0.05 81 1020.3
20260831210516 80 315 1.0 3.0 0.00 0.05 0.05 85 1020.2
20260831205516 79 0.0 1.0 0.00 0.05 0.05 87 1020.3
20260831204616 79 0.0 4.0 0.00 0.05 0.05 87 1020.3
20260831203536 79 0.0 3.0 0.00 0.05 0.05 88 1020.6
20260831202536 79 0.0 1.0 0.00 0.05 0.05 87 1020.8
20260831201516 81 0.0 3.0 0.00 0.05 0.05 84 1021.0
20260831200516 85 0.0 1.0 0.00 0.05 0.05 75 1020.9
20260831195516 87 45 2.0 8.0 0.00 0.05 0.05 68 1020.8
20260831194516 89 23 2.0 6.0 0.00 0.05 0.05 67 1020.8
20260831193516 89 248 1.0 5.0 0.00 0.05 0.05 67 1020.6
20260831192516 89 0.0 3.0 0.00 0.05 0.05 66 1020.6
20260831191536 90 0.0 1.0 0.00 0.05 0.05 65 1020.6
20260831190516 90 0.0 2.0 0.00 0.06 0.05 66 1020.8
20260831185516 92 23 1.0 5.0 0.00 0.06 0.05 64 1020.9
20260831184536 91 45 1.0 3.0 0.00 0.06 0.05 68 1021.0
20260831183516 91 0.0 2.0 0.00 0.06 0.05 67 1021.0
20260831182516 91 248 1.0 3.0 0.00 0.06 0.05 65 1021.3
20260831181536 91 0.0 3.0 0.00 0.06 0.05 66 1021.4
20260831180556 90 0.0 3.0 0.00 0.06 0.05 68 1021.5
20260831175516 90 0.0 6.0 0.00 0.06 0.05 68 1021.6
20260831174516 89 0.0 4.0 0.00 0.06 0.05 68 1021.7
20260831173656 89 315 1.0 3.0 0.00 0.06 0.05 70 1021.8
20260831172556 88 45 1.0 3.0 0.01 0.06 0.05 70 1021.8
20260831171536 88 0.0 0.0 0.01 0.06 0.05 73 1021.9
20260831170536 87 23 1.0 4.0 0.02 0.06 0.05 71 1021.9
20260831165516 87 248 2.0 6.0 0.02 0.06 0.05 72 1021.9